Flag for Norway Weather past 2 weeks in Ålgård, Norway

Now
57 °F

Drizzle. Fog.


Feels Like: 57 °F
Forecast: 58 / 67 °F
Wind: 5 mph from North

Location: Stavanger / Sola

Current Time: Jul 4, 2015 at 2:45:43 AM

Latest Report: Jul 4, 2015 at 1:50 AM


Visibility: 1 mi

Pressure: 30.24 "Hg

Humidity: 100%

Dew point: 57 °F

Location of ÅlgårdLocation

Historic Weather in Ålgård — Graph

°F

Ålgård temperature yesterday

Maximum temperature yesterday: 73 °F (at 12:20 AM)
Minimum temperature yesterday: 57 °F (at 7:50 PM)
Average temperature yesterday: 65 °F

Past Weeks' High & Low Weather Summary

 TemperatureHumidityPressure
High84 °F (Jul 2, 3:20 PM)100% (Jun 27, 5:20 PM)30.30 "Hg (Jun 27, 5:20 PM)
Low45 °F (Jun 26, 3:50 AM)37% (Jul 2, 2:20 PM)29.68 "Hg (Jun 22, 3:50 PM)
Average58 °F76%29.99 "Hg
* Reported Jun 19 1:50 AM — Jul 4 1:20 AM, Ålgård, Weather by CustomWeather, © 2015

Note: Actual official high and low records may vary slightly from our data, if they occured in-between our weather recording intervals... More about our weather records

Advertising

Ålgård weather history for previous 24 hours

 ConditionsComfort  
Time TempWeatherWind HumidityBarometerVisibility
1:20 AM
Sat, Jul 4
57 °FFog.5 mph100%30.24 "Hg1 mi
12:50 AM57 °FFog.5 mph100%30.24 "Hg1 mi
12:20 AM57 °FFog.7 mph94%30.27 "Hg1 mi
11:50 PM
Fri, Jul 3
57 °FFog.8 mph94%30.27 "Hg1 mi
11:20 PM57 °FFog.8 mph100%30.27 "Hg1 mi
10:50 PM57 °FFog.8 mph100%30.27 "Hg1 mi
10:20 PM59 °FFog.8 mph94%30.27 "Hg3 mi
9:50 PM59 °FLow clouds.9 mph94%30.27 "Hg5 mi
9:20 PM57 °FLow clouds.9 mph100%30.27 "Hg5 mi
8:50 PM57 °FFog.8 mph94%30.27 "Hg2 mi
8:20 PM57 °FFog.8 mph94%30.27 "Hg2 mi
7:50 PM57 °FFog.8 mph94%30.27 "Hg1 mi
7:20 PM59 °FFog.7 mph94%30.27 "Hg1 mi
6:50 PM59 °FFog.6 mph94%30.27 "Hg1 mi
6:20 PM61 °FFog.7 mph88%30.27 "Hg1 mi
5:50 PM59 °FFog.8 mph94%30.27 "Hg2 mi
5:20 PM63 °FFog.8 mph83%30.27 "Hg5 mi
4:50 PM63 °FScattered clouds.5 mph83%30.27 "Hg5 mi
4:20 PM59 °FFog.9 mph94%30.30 "Hg2 mi
3:50 PM59 °FFog.12 mph94%30.27 "Hg2 mi
3:20 PM61 °FFog.14 mph83%30.27 "Hg2 mi
2:50 PM64 °FPartly sunny.16 mph83%30.27 "Hg6 mi
2:20 PM66 °FFog.15 mph78%30.24 "HgN/A
1:50 PM72 °FFog.15 mph73%30.24 "HgN/A
1:20 PM72 °FPassing clouds.15 mph73%30.21 "HgN/A
12:50 PM70 °FPassing clouds.16 mph78%30.21 "HgN/A
12:20 PM72 °FPassing clouds.17 mph69%30.21 "HgN/A
11:50 AM70 °FPassing clouds.15 mph73%30.21 "HgN/A
11:20 AM66 °FPartly sunny.12 mph83%30.18 "HgN/A
10:50 AM64 °FPartly sunny.15 mph83%30.18 "HgN/A
10:20 AM66 °FPartly sunny.18 mph78%30.18 "HgN/A
9:50 AM64 °FScattered clouds.17 mph83%30.18 "HgN/A
9:20 AM72 °FSunny.9 mph65%30.15 "Hg10 mi
8:50 AM72 °FSunny.9 mph69%30.15 "Hg10 mi
8:20 AM68 °FSunny.7 mph73%30.15 "Hg10 mi
7:50 AM68 °FSunny.8 mph69%30.15 "Hg10 mi
7:20 AM68 °FSunny.8 mph69%30.12 "Hg10 mi
6:50 AM68 °FSunny.9 mph64%30.12 "Hg10 mi
6:20 AM68 °FSunny.12 mph64%30.12 "Hg10 mi
5:50 AM68 °FSunny.13 mph60%30.12 "Hg10 mi
4:50 AM70 °FClear.17 mph57%30.12 "Hg10 mi
3:50 AM70 °FPassing clouds.18 mph64%30.12 "HgN/A
2:50 AM73 °FPassing clouds.17 mph57%30.12 "HgN/A
Weather by CustomWeather, © 2015

See weather overviewHow to use our weather pages